Change the Weather History Date:

Monday, December 17, 2012

  Actual Average Record
Temperature  
Mean Temperature 24 °F -  
Max Temperature 28 °F 25 °F 46 °F (2001)
Min Temperature 21 °F 8 °F -14 °F (1983)
Degree Days  
Heating Degree Days 40    
Moisture  
Dew Point 23 °F    
Average Humidity 88    
Maximum Humidity 93    
Minimum Humidity 80    
Precipitation  
Precipitation 0.00 in - - ()
Sea Level Pressure  
Sea Level Pressure 29.72 in    
Wind  
Wind Speed 6 mph (ESE)    
Max Wind Speed 10 mph    
Max Gust Speed -    
Visibility 6 miles    
Events Fog , Snow    
Averages and records for this station are not official NWS values.
T = Trace of Precipitation, MM = Missing Value Source: NWS Daily Summary

Daily Weather History Graph

Daily Weather History Graph

Search for Another Location

Airport or City:

Trip Planner

Search our weather history database for the weather conditions in past years. The results will help you decide how hot, cold, wet, or windy it might be!

Date:

Astronomy

Dec. 17, 2012 Rise Set
Actual Time 7:47 AM CST 4:47 PM CST
Civil Twilight 7:14 AM CST 5:19 PM CST
Nautical Twilight 6:38 AM CST 5:55 PM CST
Astronomical Twilight 6:04 AM CST 6:30 PM CST
Moon 10:49 AM CST (12/17) 10:17 PM CST (12/17)
Length of Visible Light 10h 04m
Length of Day
8h 59m
Waxing Crescent, 25% of the Moon is Illuminated
Dec 17
Waxing Crescent
Dec 19
First Quarter
Dec 28
Full
Jan 4
Last Quarter
Jan 11
New

Hourly Weather History & Observations

Time (CST) Temp. Windchill Dew Point Humidity Pressure Visibility Wind Dir Wind Speed Gust Speed Precip Events Conditions
12:53 AM 21.0 °F 12.4 °F 19.0 °F 92% 29.82 in 5.0 mi NE 6.9 mph - N/A   Overcast
1:12 AM 21.2 °F 11.7 °F 19.4 °F 93% 29.76 in 2.0 mi NNE 8.1 mph - N/A   Overcast
1:30 AM 21.2 °F 12.6 °F 19.4 °F 93% 29.76 in 1.5 mi NE 6.9 mph - N/A   Overcast
1:39 AM 21.2 °F 12.6 °F 19.4 °F 93% 29.76 in 3.0 mi NE 6.9 mph - N/A   Overcast
1:53 AM 21.0 °F 12.4 °F 19.0 °F 92% 29.81 in 3.0 mi NE 6.9 mph - N/A   Overcast
2:53 AM 21.0 °F 14.6 °F 18.0 °F 88% 29.82 in 9.0 mi ENE 4.6 mph - N/A   Overcast
3:53 AM 21.0 °F - 18.0 °F 88% 29.81 in 6.0 mi Calm Calm - N/A   Overcast
4:53 AM 21.9 °F 14.5 °F 19.0 °F 89% 29.79 in 8.0 mi ENE 5.8 mph - N/A   Overcast
5:53 AM 21.9 °F 14.5 °F 19.0 °F 89% 29.80 in 8.0 mi East 5.8 mph - N/A   Overcast
6:53 AM 21.9 °F 14.5 °F 19.0 °F 89% 29.80 in 9.0 mi East 5.8 mph - N/A   Overcast
7:14 AM 21.2 °F 12.6 °F 19.4 °F 93% 29.73 in 9.0 mi East 6.9 mph - N/A   Overcast
7:53 AM 21.9 °F 13.4 °F 19.9 °F 92% 29.78 in 8.0 mi East 6.9 mph - N/A   Overcast
8:35 AM 23.0 °F 18.4 °F 19.4 °F 86% 29.73 in 7.0 mi ENE 3.5 mph - N/A   Overcast
8:53 AM 23.0 °F 15.8 °F 21.0 °F 92% 29.79 in 6.0 mi SE 5.8 mph - N/A   Overcast
8:57 AM 23.0 °F 17.0 °F 21.2 °F 93% 29.73 in 1.5 mi ESE 4.6 mph - 0.00 in Snow Light Snow
9:04 AM 23.0 °F 17.0 °F 21.2 °F 93% 29.73 in 0.5 mi ESE 4.6 mph - 0.00 in Fog , Snow Snow
9:18 AM 24.8 °F 17.9 °F 21.2 °F 86% 29.73 in 2.0 mi ESE 5.8 mph - 0.00 in Snow Light Snow
9:28 AM 24.8 °F 19.1 °F 21.2 °F 86% 29.72 in 4.0 mi East 4.6 mph - 0.00 in Snow Light Snow
9:53 AM 25.0 °F 19.3 °F 21.0 °F 85% 29.78 in 7.0 mi East 4.6 mph - 0.00 in   Overcast
10:01 AM 24.8 °F 17.9 °F 21.2 °F 86% 29.72 in 7.0 mi East 5.8 mph - N/A   Overcast
10:11 AM 24.8 °F 19.1 °F 21.2 °F 86% 29.72 in 8.0 mi ESE 4.6 mph - N/A   Overcast
10:53 AM 26.1 °F 19.4 °F 21.9 °F 84% 29.77 in 7.0 mi ESE 5.8 mph - N/A   Overcast
11:05 AM 26.6 °F 20.0 °F 21.2 °F 80% 29.71 in 8.0 mi ESE 5.8 mph - N/A   Overcast
11:28 AM 26.6 °F 22.6 °F 21.2 °F 80% 29.70 in 10.0 mi SE 3.5 mph - N/A   Overcast
11:38 AM 26.6 °F 22.6 °F 23.0 °F 86% 29.70 in 10.0 mi SSE 3.5 mph - N/A   Overcast
11:46 AM 26.6 °F 21.2 °F 23.0 °F 86% 29.70 in 10.0 mi SSE 4.6 mph - N/A   Overcast
11:53 AM 27.0 °F - 23.0 °F 85% 29.75 in 10.0 mi Calm Calm - N/A   Overcast
12:53 PM 28.0 °F 22.8 °F 24.1 °F 85% 29.73 in 10.0 mi SSE 4.6 mph - N/A   Overcast
1:53 PM 28.0 °F 21.7 °F 24.1 °F 85% 29.71 in 10.0 mi South 5.8 mph - N/A   Overcast
2:53 PM 28.9 °F 23.9 °F 24.1 °F 82% 29.70 in 10.0 mi South 4.6 mph - N/A   Overcast
3:43 PM 28.4 °F 24.6 °F 24.8 °F 86% 29.66 in 10.0 mi SSW 3.5 mph - N/A   Overcast
3:53 PM 28.9 °F 25.2 °F 24.1 °F 82% 29.71 in 10.0 mi SSW 3.5 mph - N/A   Overcast
6:53 PM 28.9 °F 22.8 °F 25.0 °F 85% 29.70 in 10.0 mi SE 5.8 mph - N/A   Overcast
7:53 PM 28.0 °F 22.8 °F 24.1 °F 85% 29.70 in 9.0 mi SE 4.6 mph - N/A   Overcast
8:45 PM 28.4 °F 22.2 °F 24.8 °F 86% 29.65 in 8.0 mi SE 5.8 mph - N/A   Overcast
8:53 PM 28.9 °F 21.9 °F 25.0 °F 85% 29.70 in 8.0 mi SE 6.9 mph - N/A   Overcast
9:53 PM 28.9 °F 21.9 °F 26.1 °F 89% 29.70 in 7.0 mi SE 6.9 mph - N/A   Overcast
10:22 PM 28.4 °F 21.2 °F 26.6 °F 93% 29.64 in 3.0 mi SE 6.9 mph - N/A   Overcast
10:30 PM 28.4 °F 21.2 °F 26.6 °F 93% 29.64 in 2.0 mi SE 6.9 mph - N/A   Overcast
10:38 PM 28.4 °F 20.4 °F 26.6 °F 93% 29.64 in 1.2 mi SE 8.1 mph - N/A   Overcast
10:53 PM 28.9 °F 21.1 °F 27.0 °F 92% 29.68 in 1.0 mi SE 8.1 mph - N/A   Overcast
11:00 PM 28.4 °F 20.4 °F 26.6 °F 93% 29.63 in 0.5 mi SE 8.1 mph - N/A Fog Light Freezing Fog
11:21 PM 28.4 °F 19.7 °F 26.6 °F 93% 29.63 in 1.5 mi SE 9.2 mph - N/A   Overcast
11:30 PM 28.4 °F 21.2 °F 26.6 °F 93% 29.63 in 2.5 mi SE 6.9 mph - N/A   Overcast
11:43 PM 28.4 °F 20.4 °F 26.6 °F 93% 29.63 in 4.0 mi SSE 8.1 mph - N/A   Overcast
11:53 PM 28.9 °F 19.8 °F 27.0 °F 92% 29.68 in 5.0 mi SSE 10.4 mph - N/A   Overcast